M I D A S
Marine Information and Data Acquisition System
Tripno 1520 of the Zeeleeuw from 2008-07-16 06:56:36 to 2008-07-16 11:30:06
Back to CruiseResearch ActivitiesStationsMapUnderway DataData graphs

EquipmentUnitsComments
TimeDGPSUTC
LatitudeDGPSDM.mWGS84
LongitudeDGPSDM.mWGS84
SpeedMeteo Stationm/sRelative wind speed
DirectionMeteo StationdegRelative wind direction
TemperatureMeteo Stationdeg CelciusAir temperature
PressureMeteo StationPaAtmospheric pressure
HumidityMeteo Station%Relative humidity
Missing or incorrect values are displayed as -999
Metereological data collected by the RV Zeeleeuw from 2008-07-16 06:49:13 to 2008-07-16 11:42:08
Time Latitude Longitude Speed Direction Temperature Pressure Humidity
2008-07-16 06:50 51°13.623 2°56.047 -999 -999 -999 -999 -999
2008-07-16 06:51 51°13.622 2°56.047 -999 -999 -999 -999 -999
2008-07-16 06:52 51°13.622 2°56.047 -999 -999 -999 -999 -999
2008-07-16 06:53 51°13.623 2°56.048 -999 -999 -999 -999 -999
2008-07-16 06:54 51°13.623 2°56.048 -999 -999 -999 -999 -999
2008-07-16 06:55 51°13.623 2°56.047 -999 -999 -999 -999 -999
2008-07-16 06:56 51°13.622 2°56.046 -999 -999 -999 -999 -999
2008-07-16 06:57 51°13.638 2°55.985 -999 -999 -999 -999 -999
2008-07-16 06:58 51°13.67 2°55.881 -999 -999 -999 -999 -999
2008-07-16 06:59 51°13.709 2°55.795 -999 -999 -999 -999 -999
2008-07-16 07:00 51°13.738 2°55.75 -999 -999 -999 -999 -999
2008-07-16 07:01 51°13.793 2°55.667 -999 -999 -999 -999 -999
2008-07-16 07:02 51°13.858 2°55.598 -999 -999 -999 -999 -999
2008-07-16 07:03 51°13.925 2°55.594 -999 -999 -999 -999 -999
2008-07-16 07:04 51°13.955 2°55.615 -999 -999 -999 -999 -999
2008-07-16 07:05 51°13.966 2°55.56 -999 -999 -999 -999 -999
2008-07-16 07:06 51°14.056 2°55.467 -999 -999 -999 -999 -999
2008-07-16 07:07 51°14.19 2°55.34 -999 -999 -999 -999 -999
2008-07-16 07:08 51°14.317 2°55.15 -999 -999 -999 -999 -999
2008-07-16 07:09 51°14.441 2°54.92 -999 -999 -999 -999 -999
2008-07-16 07:10 51°14.582 2°54.686 -999 -999 -999 -999 -999
2008-07-16 07:11 51°14.714 2°54.434 -999 -999 -999 -999 -999
2008-07-16 07:12 51°14.838 2°54.178 -999 -999 -999 -999 -999
2008-07-16 07:13 51°14.904 2°53.868 -999 -999 -999 -999 -999
2008-07-16 07:14 51°14.943 2°53.542 -999 -999 -999 -999 -999
2008-07-16 07:15 51°14.955 2°53.205 -999 -999 -999 -999 -999
2008-07-16 07:16 51°14.967 2°52.87 -999 -999 -999 -999 -999
2008-07-16 07:17 51°14.974 2°52.533 -999 -999 -999 -999 -999
2008-07-16 07:18 51°14.976 2°52.193 -999 -999 -999 -999 -999
2008-07-16 07:19 51°14.989 2°51.855 -999 -999 -999 -999 -999
2008-07-16 07:20 51°15.006 2°51.517 -999 -999 -999 -999 -999
2008-07-16 07:21 51°15.042 2°51.182 -999 -999 -999 -999 -999
2008-07-16 07:22 51°15.1 2°50.857 -999 -999 -999 -999 -999
2008-07-16 07:23 51°15.167 2°50.535 -999 -999 -999 -999 -999
2008-07-16 07:24 51°15.233 2°50.213 -999 -999 -999 -999 -999
2008-07-16 07:25 51°15.3 2°49.894 -999 -999 -999 -999 -999
2008-07-16 07:26 51°15.372 2°49.576 -999 -999 -999 -999 -999
2008-07-16 07:27 51°15.44 2°49.257 -999 -999 -999 -999 -999
2008-07-16 07:28 51°15.499 2°48.936 -999 -999 -999 -999 -999
2008-07-16 07:29 51°15.558 2°48.618 -999 -999 -999 -999 -999
2008-07-16 07:30 51°15.616 2°48.299 -999 -999 -999 -999 -999
2008-07-16 07:31 51°15.688 2°47.986 -999 -999 -999 -999 -999
2008-07-16 07:32 51°15.771 2°47.677 -999 -999 -999 -999 -999
2008-07-16 07:33 51°15.849 2°47.364 -999 -999 -999 -999 -999
2008-07-16 07:34 51°15.925 2°47.047 -999 -999 -999 -999 -999
2008-07-16 07:35 51°15.996 2°46.73 -999 -999 -999 -999 -999
2008-07-16 07:36 51°16.071 2°46.418 -999 -999 -999 -999 -999
2008-07-16 07:37 51°16.149 2°46.112 -999 -999 -999 -999 -999
2008-07-16 07:38 51°16.227 2°45.809 -999 -999 -999 -999 -999
2008-07-16 07:39 51°16.304 2°45.507 -999 -999 -999 -999 -999
2008-07-16 07:40 51°16.388 2°45.212 -999 -999 -999 -999 -999
2008-07-16 07:41 51°16.478 2°44.92 -999 -999 -999 -999 -999
2008-07-16 07:42 51°16.576 2°44.636 -999 -999 -999 -999 -999
2008-07-16 07:43 51°16.687 2°44.363 -999 -999 -999 -999 -999
2008-07-16 07:44 51°16.8 2°44.091 -999 -999 -999 -999 -999
2008-07-16 07:45 51°16.919 2°43.823 -999 -999 -999 -999 -999
2008-07-16 07:46 51°17.028 2°43.543 -999 -999 -999 -999 -999
2008-07-16 07:47 51°17.142 2°43.268 -999 -999 -999 -999 -999
2008-07-16 07:48 51°17.268 2°43.006 -999 -999 -999 -999 -999
2008-07-16 07:49 51°17.394 2°42.744 -999 -999 -999 -999 -999
2008-07-16 07:50 51°17.516 2°42.469 -999 -999 -999 -999 -999
2008-07-16 07:51 51°17.632 2°42.19 -999 -999 -999 -999 -999
2008-07-16 07:52 51°17.753 2°41.917 -999 -999 -999 -999 -999
2008-07-16 07:53 51°17.9 2°41.69 -999 -999 -999 -999 -999
2008-07-16 07:54 51°18.043 2°41.459 -999 -999 -999 -999 -999
2008-07-16 07:55 51°18.177 2°41.211 -999 -999 -999 -999 -999
2008-07-16 07:56 51°18.296 2°40.941 -999 -999 -999 -999 -999
2008-07-16 07:57 51°18.424 2°40.678 -999 -999 -999 -999 -999
2008-07-16 07:58 51°18.554 2°40.418 -999 -999 -999 -999 -999
2008-07-16 07:59 51°18.677 2°40.146 -999 -999 -999 -999 -999
2008-07-16 08:00 51°18.803 2°39.88 -999 -999 -999 -999 -999
2008-07-16 08:01 51°18.935 2°39.625 -999 -999 -999 -999 -999
2008-07-16 08:02 51°19.067 2°39.371 -999 -999 -999 -999 -999
2008-07-16 08:03 51°19.19 2°39.105 -999 -999 -999 -999 -999
2008-07-16 08:04 51°19.312 2°38.84 -999 -999 -999 -999 -999
2008-07-16 08:05 51°19.437 2°38.571 -999 -999 -999 -999 -999
2008-07-16 08:06 51°19.559 2°38.315 -999 -999 -999 -999 -999
2008-07-16 08:07 51°19.686 2°38.051 -999 -999 -999 -999 -999
2008-07-16 08:08 51°19.808 2°37.795 -999 -999 -999 -999 -999
2008-07-16 08:09 51°19.912 2°37.532 -999 -999 -999 -999 -999
2008-07-16 08:10 51°19.983 2°37.33 -999 -999 -999 -999 -999
2008-07-16 08:11 51°20.034 2°37.132 -999 -999 -999 -999 -999
2008-07-16 08:12 51°20.068 2°36.995 -999 -999 -999 -999 -999
2008-07-16 08:13 51°20.097 2°36.912 -999 -999 -999 -999 -999
2008-07-16 08:14 51°20.092 2°36.884 -999 -999 -999 -999 -999
2008-07-16 08:15 51°20.079 2°36.869 -999 -999 -999 -999 -999
2008-07-16 08:16 51°20.064 2°36.858 -999 -999 -999 -999 -999
2008-07-16 08:17 51°20.049 2°36.848 -999 -999 -999 -999 -999
2008-07-16 08:18 51°20.032 2°36.841 -999 -999 -999 -999 -999
2008-07-16 08:19 51°20.016 2°36.835 -999 -999 -999 -999 -999
2008-07-16 08:20 51°20 2°36.829 -999 -999 -999 -999 -999
2008-07-16 08:21 51°19.984 2°36.824 -999 -999 -999 -999 -999
2008-07-16 08:22 51°19.968 2°36.819 -999 -999 -999 -999 -999
2008-07-16 08:23 51°19.953 2°36.815 -999 -999 -999 -999 -999
2008-07-16 08:24 51°19.938 2°36.811 -999 -999 -999 -999 -999
2008-07-16 08:25 51°19.925 2°36.808 -999 -999 -999 -999 -999
2008-07-16 08:26 51°19.911 2°36.805 -999 -999 -999 -999 -999
2008-07-16 08:27 51°19.898 2°36.802 -999 -999 -999 -999 -999
2008-07-16 08:28 51°19.886 2°36.799 -999 -999 -999 -999 -999
2008-07-16 08:29 51°19.874 2°36.796 -999 -999 -999 -999 -999
2008-07-16 08:30 51°19.863 2°36.793 -999 -999 -999 -999 -999
2008-07-16 08:31 51°19.851 2°36.791 -999 -999 -999 -999 -999
2008-07-16 08:32 51°19.839 2°36.789 -999 -999 -999 -999 -999
2008-07-16 08:33 51°19.828 2°36.787 -999 -999 -999 -999 -999
2008-07-16 08:34 51°19.816 2°36.786 -999 -999 -999 -999 -999
2008-07-16 08:35 51°19.804 2°36.785 -999 -999 -999 -999 -999
2008-07-16 08:36 51°19.792 2°36.784 -999 -999 -999 -999 -999
2008-07-16 08:37 51°19.78 2°36.783 -999 -999 -999 -999 -999
2008-07-16 08:38 51°19.769 2°36.783 -999 -999 -999 -999 -999
2008-07-16 08:39 51°19.758 2°36.783 -999 -999 -999 -999 -999
2008-07-16 08:40 51°19.748 2°36.783 -999 -999 -999 -999 -999
2008-07-16 08:41 51°19.737 2°36.786 -999 -999 -999 -999 -999
2008-07-16 08:42 51°19.731 2°36.791 -999 -999 -999 -999 -999
2008-07-16 08:43 51°19.733 2°36.801 -999 -999 -999 -999 -999
2008-07-16 08:44 51°19.746 2°36.812 -999 -999 -999 -999 -999
2008-07-16 08:45 51°19.764 2°36.823 -999 -999 -999 -999 -999
2008-07-16 08:46 51°19.787 2°36.83 -999 -999 -999 -999 -999
2008-07-16 08:47 51°19.812 2°36.833 -999 -999 -999 -999 -999
2008-07-16 08:48 51°19.838 2°36.838 -999 -999 -999 -999 -999
2008-07-16 08:49 51°19.864 2°36.848 -999 -999 -999 -999 -999
2008-07-16 08:50 51°19.89 2°36.853 -999 -999 -999 -999 -999
2008-07-16 08:51 51°19.917 2°36.861 -999 -999 -999 -999 -999
2008-07-16 08:52 51°19.945 2°36.871 -999 -999 -999 -999 -999
2008-07-16 08:53 51°19.971 2°36.881 -999 -999 -999 -999 -999
2008-07-16 08:54 51°19.987 2°36.891 -999 -999 -999 -999 -999
2008-07-16 08:55 51°19.995 2°36.899 -999 -999 -999 -999 -999
2008-07-16 08:56 51°19.998 2°36.908 -999 -999 -999 -999 -999
2008-07-16 08:57 51°19.997 2°36.918 -999 -999 -999 -999 -999
2008-07-16 08:58 51°19.995 2°36.929 -999 -999 -999 -999 -999
2008-07-16 08:59 51°19.99 2°36.939 -999 -999 -999 -999 -999
2008-07-16 09:00 51°19.985 2°36.951 -999 -999 -999 -999 -999
2008-07-16 09:01 51°19.978 2°36.962 -999 -999 -999 -999 -999
2008-07-16 09:02 51°19.971 2°36.974 -999 -999 -999 -999 -999
2008-07-16 09:03 51°19.963 2°36.987 -999 -999 -999 -999 -999
2008-07-16 09:04 51°19.956 2°37.001 -999 -999 -999 -999 -999
2008-07-16 09:05 51°19.951 2°37.015 -999 -999 -999 -999 -999
2008-07-16 09:06 51°19.95 2°37.03 -999 -999 -999 -999 -999
2008-07-16 09:07 51°19.951 2°37.043 -999 -999 -999 -999 -999
2008-07-16 09:08 51°19.954 2°37.055 -999 -999 -999 -999 -999
2008-07-16 09:09 51°19.959 2°37.064 -999 -999 -999 -999 -999
2008-07-16 09:10 51°19.977 2°37.055 -999 -999 -999 -999 -999
2008-07-16 09:11 51°19.998 2°37.046 -999 -999 -999 -999 -999
2008-07-16 09:12 51°19.995 2°37.056 -999 -999 -999 -999 -999
2008-07-16 09:13 51°19.988 2°37.071 -999 -999 -999 -999 -999
2008-07-16 09:14 51°19.981 2°37.088 -999 -999 -999 -999 -999
2008-07-16 09:15 51°19.973 2°37.106 -999 -999 -999 -999 -999
2008-07-16 09:16 51°19.968 2°37.128 -999 -999 -999 -999 -999
2008-07-16 09:17 51°19.971 2°37.154 -999 -999 -999 -999 -999
2008-07-16 09:18 51°19.982 2°37.172 -999 -999 -999 -999 -999
2008-07-16 09:19 51°20.003 2°37.17 -999 -999 -999 -999 -999
2008-07-16 09:20 51°20.019 2°37.119 -999 -999 -999 -999 -999
2008-07-16 09:21 51°20.035 2°37.057 -999 -999 -999 -999 -999
2008-07-16 09:22 51°20.057 2°36.999 -999 -999 -999 -999 -999
2008-07-16 09:23 51°20.076 2°36.945 -999 -999 -999 -999 -999
2008-07-16 09:24 51°20.094 2°36.909 -999 -999 -999 -999 -999
2008-07-16 09:25 51°20.106 2°36.897 -999 -999 -999 -999 -999
2008-07-16 09:26 51°20.113 2°36.904 -999 -999 -999 -999 -999
2008-07-16 09:27 51°20.108 2°36.919 -999 -999 -999 -999 -999
2008-07-16 09:28 51°20.096 2°36.929 -999 -999 -999 -999 -999
2008-07-16 09:29 51°20.084 2°36.934 -999 -999 -999 -999 -999
2008-07-16 09:30 51°20.081 2°36.954 -999 -999 -999 -999 -999
2008-07-16 09:31 51°20.122 2°36.97 -999 -999 -999 -999 -999
2008-07-16 09:32 51°20.127 2°36.888 -999 -999 -999 -999 -999
2008-07-16 09:33 51°20.082 2°36.87 -999 -999 -999 -999 -999
2008-07-16 09:34 51°20.081 2°36.884 -999 -999 -999 -999 -999
2008-07-16 09:35 51°20.082 2°36.899 -999 -999 -999 -999 -999
2008-07-16 09:36 51°20.081 2°36.917 -999 -999 -999 -999 -999
2008-07-16 09:37 51°20.078 2°36.937 -999 -999 -999 -999 -999
2008-07-16 09:38 51°20.063 2°36.955 -999 -999 -999 -999 -999
2008-07-16 09:39 51°20.033 2°36.902 -999 -999 -999 -999 -999
2008-07-16 09:40 51°20.073 2°36.846 -999 -999 -999 -999 -999
2008-07-16 09:41 51°20.1 2°36.87 -999 -999 -999 -999 -999
2008-07-16 09:42 51°20.101 2°36.895 -999 -999 -999 -999 -999
2008-07-16 09:43 51°20.098 2°36.912 -999 -999 -999 -999 -999
2008-07-16 09:44 51°20.095 2°36.894 -999 -999 -999 -999 -999
2008-07-16 09:45 51°20.094 2°36.905 -999 -999 -999 -999 -999
2008-07-16 09:46 51°20.094 2°36.935 -999 -999 -999 -999 -999
2008-07-16 09:47 51°20.087 2°36.948 -999 -999 -999 -999 -999
2008-07-16 09:48 51°20.079 2°36.951 -999 -999 -999 -999 -999
2008-07-16 09:49 51°20.073 2°36.96 -999 -999 -999 -999 -999
2008-07-16 09:50 51°20.084 2°37.007 -999 -999 -999 -999 -999
2008-07-16 09:51 51°20.124 2°37.033 -999 -999 -999 -999 -999
2008-07-16 09:52 51°20.147 2°36.991 -999 -999 -999 -999 -999
2008-07-16 09:53 51°20.126 2°36.93 -999 -999 -999 -999 -999
2008-07-16 09:54 51°20.103 2°36.883 -999 -999 -999 -999 -999
2008-07-16 09:55 51°20.09 2°36.876 -999 -999 -999 -999 -999
2008-07-16 09:56 51°20.083 2°36.891 -999 -999 -999 -999 -999
2008-07-16 09:57 51°20.077 2°36.909 -999 -999 -999 -999 -999
2008-07-16 09:58 51°20.071 2°36.929 -999 -999 -999 -999 -999
2008-07-16 09:59 51°20.065 2°36.948 -999 -999 -999 -999 -999
2008-07-16 10:00 51°20.049 2°36.945 -999 -999 -999 -999 -999
2008-07-16 10:01 51°20.044 2°36.913 -999 -999 -999 -999 -999
2008-07-16 10:02 51°20.067 2°36.884 -999 -999 -999 -999 -999
2008-07-16 10:03 51°20.092 2°36.883 -999 -999 -999 -999 -999
2008-07-16 10:04 51°20.093 2°36.904 -999 -999 -999 -999 -999
2008-07-16 10:05 51°20.094 2°36.927 -999 -999 -999 -999 -999
2008-07-16 10:06 51°20.102 2°36.954 -999 -999 -999 -999 -999
2008-07-16 10:07 51°20.119 2°36.982 -999 -999 -999 -999 -999
2008-07-16 10:08 51°20.138 2°37 -999 -999 -999 -999 -999
2008-07-16 10:09 51°20.158 2°36.998 -999 -999 -999 -999 -999
2008-07-16 10:10 51°20.148 2°36.951 -999 -999 -999 -999 -999
2008-07-16 10:11 51°20.105 2°36.904 -999 -999 -999 -999 -999
2008-07-16 10:12 51°20.087 2°36.896 -999 -999 -999 -999 -999
2008-07-16 10:13 51°20.081 2°36.9 -999 -999 -999 -999 -999
2008-07-16 10:14 51°20.077 2°36.908 -999 -999 -999 -999 -999
2008-07-16 10:15 51°20.074 2°36.92 -999 -999 -999 -999 -999
2008-07-16 10:16 51°20.07 2°36.931 -999 -999 -999 -999 -999
2008-07-16 10:17 51°20.068 2°36.924 -999 -999 -999 -999 -999
2008-07-16 10:18 51°20.077 2°36.906 -999 -999 -999 -999 -999
2008-07-16 10:19 51°20.092 2°36.894 -999 -999 -999 -999 -999
2008-07-16 10:20 51°20.106 2°36.9 -999 -999 -999 -999 -999
2008-07-16 10:21 51°20.122 2°36.91 -999 -999 -999 -999 -999
2008-07-16 10:22 51°20.136 2°36.905 -999 -999 -999 -999 -999
2008-07-16 10:23 51°20.136 2°36.894 -999 -999 -999 -999 -999
2008-07-16 10:24 51°20.122 2°36.891 -999 -999 -999 -999 -999
2008-07-16 10:25 51°20.098 2°36.891 -999 -999 -999 -999 -999
2008-07-16 10:26 51°20.085 2°36.903 -999 -999 -999 -999 -999
2008-07-16 10:27 51°20.077 2°36.918 -999 -999 -999 -999 -999
2008-07-16 10:28 51°20.071 2°36.935 -999 -999 -999 -999 -999
2008-07-16 10:29 51°20.053 2°36.947 -999 -999 -999 -999 -999
2008-07-16 10:30 51°20.008 2°37.002 -999 -999 -999 -999 -999
2008-07-16 10:31 51°19.925 2°37.156 -999 -999 -999 -999 -999
2008-07-16 10:32 51°19.803 2°37.403 -999 -999 -999 -999 -999
2008-07-16 10:33 51°19.667 2°37.677 -999 -999 -999 -999 -999
2008-07-16 10:34 51°19.536 2°37.944 -999 -999 -999 -999 -999
2008-07-16 10:35 51°19.408 2°38.227 -999 -999 -999 -999 -999
2008-07-16 10:36 51°19.282 2°38.496 -999 -999 -999 -999 -999
2008-07-16 10:37 51°19.146 2°38.769 -999 -999 -999 -999 -999
2008-07-16 10:38 51°19.022 2°39.039 -999 -999 -999 -999 -999
2008-07-16 10:39 51°18.9 2°39.326 -999 -999 -999 -999 -999
2008-07-16 10:40 51°18.78 2°39.599 -999 -999 -999 -999 -999
2008-07-16 10:41 51°18.661 2°39.888 -999 -999 -999 -999 -999
2008-07-16 10:42 51°18.569 2°40.2 -999 -999 -999 -999 -999
2008-07-16 10:43 51°18.477 2°40.517 -999 -999 -999 -999 -999
2008-07-16 10:44 51°18.384 2°40.836 -999 -999 -999 -999 -999
2008-07-16 10:45 51°18.292 2°41.156 -999 -999 -999 -999 -999
2008-07-16 10:46 51°18.197 2°41.473 -999 -999 -999 -999 -999
2008-07-16 10:47 51°18.09 2°41.77 -999 -999 -999 -999 -999
2008-07-16 10:48 51°17.969 2°42.063 -999 -999 -999 -999 -999
2008-07-16 10:49 51°17.85 2°42.348 -999 -999 -999 -999 -999
2008-07-16 10:50 51°17.731 2°42.633 -999 -999 -999 -999 -999
2008-07-16 10:51 51°17.614 2°42.92 -999 -999 -999 -999 -999
2008-07-16 10:52 51°17.497 2°43.202 -999 -999 -999 -999 -999
2008-07-16 10:53 51°17.357 2°43.472 -999 -999 -999 -999 -999
2008-07-16 10:54 51°17.222 2°43.731 -999 -999 -999 -999 -999
2008-07-16 10:55 51°17.08 2°43.993 -999 -999 -999 -999 -999
2008-07-16 10:56 51°16.943 2°44.242 -999 -999 -999 -999 -999
2008-07-16 10:57 51°16.803 2°44.499 -999 -999 -999 -999 -999
2008-07-16 10:58 51°16.665 2°44.751 -999 -999 -999 -999 -999
2008-07-16 10:59 51°16.536 2°45.015 -999 -999 -999 -999 -999
2008-07-16 11:00 51°16.407 2°45.279 -999 -999 -999 -999 -999
2008-07-16 11:01 51°16.291 2°45.561 -999 -999 -999 -999 -999
2008-07-16 11:02 51°16.192 2°45.863 -999 -999 -999 -999 -999
2008-07-16 11:03 51°16.106 2°46.177 -999 -999 -999 -999 -999
2008-07-16 11:04 51°16.014 2°46.493 -999 -999 -999 -999 -999
2008-07-16 11:05 51°15.927 2°46.809 -999 -999 -999 -999 -999
2008-07-16 11:06 51°15.838 2°47.137 -999 -999 -999 -999 -999
2008-07-16 11:07 51°15.773 2°47.476 -999 -999 -999 -999 -999
2008-07-16 11:08 51°15.726 2°47.823 -999 -999 -999 -999 -999
2008-07-16 11:09 51°15.684 2°48.169 -999 -999 -999 -999 -999
2008-07-16 11:10 51°15.639 2°48.512 -999 -999 -999 -999 -999
2008-07-16 11:11 51°15.585 2°48.85 -999 -999 -999 -999 -999
2008-07-16 11:12 51°15.536 2°49.19 -999 -999 -999 -999 -999
2008-07-16 11:13 51°15.503 2°49.539 -999 -999 -999 -999 -999
2008-07-16 11:14 51°15.453 2°49.881 -999 -999 -999 -999 -999
2008-07-16 11:15 51°15.386 2°50.214 -999 -999 -999 -999 -999
2008-07-16 11:16 51°15.323 2°50.547 -999 -999 -999 -999 -999
2008-07-16 11:17 51°15.242 2°50.869 -999 -999 -999 -999 -999
2008-07-16 11:18 51°15.157 2°51.188 -999 -999 -999 -999 -999
2008-07-16 11:19 51°15.069 2°51.505 -999 -999 -999 -999 -999
2008-07-16 11:20 51°14.995 2°51.83 -999 -999 -999 -999 -999
2008-07-16 11:21 51°14.935 2°52.162 -999 -999 -999 -999 -999
2008-07-16 11:22 51°14.867 2°52.489 -999 -999 -999 -999 -999
2008-07-16 11:23 51°14.802 2°52.815 -999 -999 -999 -999 -999
2008-07-16 11:24 51°14.74 2°53.142 -999 -999 -999 -999 -999
2008-07-16 11:25 51°14.681 2°53.469 -999 -999 -999 -999 -999
2008-07-16 11:26 51°14.64 2°53.808 -999 -999 -999 -999 -999
2008-07-16 11:27 51°14.596 2°54.152 -999 -999 -999 -999 -999
2008-07-16 11:28 51°14.536 2°54.485 -999 -999 -999 -999 -999
2008-07-16 11:29 51°14.459 2°54.806 -999 -999 -999 -999 -999
2008-07-16 11:30 51°14.347 2°55.089 -999 -999 -999 -999 -999
2008-07-16 11:31 51°14.232 2°55.299 -999 -999 -999 -999 -999
2008-07-16 11:32 51°14.125 2°55.423 -999 -999 -999 -999 -999
2008-07-16 11:33 51°14.048 2°55.525 -999 -999 -999 -999 -999
2008-07-16 11:34 51°13.991 2°55.605 -999 -999 -999 -999 -999
2008-07-16 11:35 51°13.956 2°55.619 -999 -999 -999 -999 -999
2008-07-16 11:36 51°13.956 2°55.627 -999 -999 -999 -999 -999
2008-07-16 11:37 51°13.962 2°55.639 -999 -999 -999 -999 -999
2008-07-16 11:38 51°13.959 2°55.649 -999 -999 -999 -999 -999
2008-07-16 11:39 51°13.949 2°55.653 -999 -999 -999 -999 -999
2008-07-16 11:40 51°13.94 2°55.656 -999 -999 -999 -999 -999
2008-07-16 11:41 51°13.93 2°55.661 -999 -999 -999 -999 -999